Weather History for Muscatine, IA

Change the Weather History Date:

Saturday, September 22, 2012

  Actual Average Record
Temperature  
Mean Temperature 51 °F -  
Max Temperature 60 °F 71 °F 93 °F (1988)
Min Temperature 41 °F 50 °F 31 °F (1974)
Degree Days  
Heating Degree Days 14    
Growing Degree Days 1 (Base 50)    
Moisture  
Dew Point 35 °F    
Average Humidity 57    
Maximum Humidity 87    
Minimum Humidity 34    
Precipitation  
Precipitation 0.00 in - - ()
Sea Level Pressure  
Sea Level Pressure 30.08 in    
Wind  
Wind Speed 8 mph (NW)    
Max Wind Speed 22 mph    
Max Gust Speed 30 mph    
Visibility 10 miles    
Events      
Averages and records for this station are not official NWS values.
T = Trace of Precipitation, MM = Missing Value Source: NWS Daily Summary

Daily Weather History Graph

Daily Weather History Graph

Search for Another Location

Airport:

Trip Planner

Search our weather history database for the weather conditions in past years. The results will help you decide how hot, cold, wet, or windy it might be!

Date:

Astronomy

Sep. 22, 2012 Rise Set
Actual Time 6:52 AM CDT 7:00 PM CDT
Civil Twilight 6:24 AM CDT 7:28 PM CDT
Nautical Twilight 5:52 AM CDT 8:00 PM CDT
Astronomical Twilight 5:19 AM CDT 8:33 PM CDT
Moon 2:14 PM CDT (9/22) No Moon Set
Length of Visible Light 13h 03m
Length of Day
12h 08m
Waxing Crescent, 49% of the Moon is Illuminated
Sep 22
Waxing Crescent
Sep 22
First Quarter
Sep 29
Full
Oct 8
Last Quarter
Oct 15
New

Hourly Weather History & Observations

Time (CDT) Temp. Windchill Dew Point Humidity Pressure Visibility Wind Dir Wind Speed Gust Speed Precip Events Conditions
12:15 AM 46.4 °F - 41.0 °F 81% 29.86 in 10.0 mi Calm Calm - N/A   Clear
12:35 AM 46.4 °F 44.3 °F 42.8 °F 87% 29.85 in 10.0 mi SSE 4.6 mph - N/A   Clear
12:55 AM 46.4 °F 45.2 °F 42.8 °F 87% 29.85 in 10.0 mi South 3.5 mph - N/A   Clear
1:15 AM 46.4 °F - 42.8 °F 87% 29.85 in 10.0 mi Calm Calm - N/A   Clear
1:35 AM 48.2 °F - 44.6 °F 87% 29.84 in 10.0 mi SSW 5.8 mph - N/A   Clear
1:55 AM 50.0 °F - 44.6 °F 82% 29.84 in 10.0 mi SSW 4.6 mph - N/A   Clear
2:15 AM 50.0 °F - 44.6 °F 82% 29.84 in 10.0 mi SSW 3.5 mph - N/A   Scattered Clouds
2:35 AM 51.8 °F - 44.6 °F 76% 29.84 in 10.0 mi SW 5.8 mph - N/A   Mostly Cloudy
2:55 AM 50.0 °F - 44.6 °F 82% 29.84 in 10.0 mi WSW 4.6 mph - N/A   Scattered Clouds
3:15 AM 51.8 °F - 44.6 °F 76% 29.84 in 10.0 mi West 8.1 mph - N/A   Scattered Clouds
3:35 AM 51.8 °F - 44.6 °F 76% 29.85 in 10.0 mi WNW 3.5 mph - N/A   Scattered Clouds
3:55 AM 50.0 °F - 44.6 °F 82% 29.86 in 10.0 mi NW 3.5 mph - N/A   Mostly Cloudy
4:15 AM 50.0 °F - 44.6 °F 82% 29.86 in 10.0 mi WNW 6.9 mph - N/A   Mostly Cloudy
4:35 AM 50.0 °F - 44.6 °F 82% 29.87 in 10.0 mi WNW 11.5 mph - N/A   Scattered Clouds
4:55 AM 51.8 °F - 44.6 °F 76% 29.89 in 10.0 mi NW 15.0 mph 18.4 mph N/A   Scattered Clouds
5:15 AM 51.8 °F - 42.8 °F 71% 29.91 in 10.0 mi NW 13.8 mph 21.9 mph N/A   Scattered Clouds
5:35 AM 50.0 °F - 42.8 °F 76% 29.93 in 10.0 mi NNW 12.7 mph - N/A   Scattered Clouds
5:55 AM 48.2 °F - 37.4 °F 66% 29.95 in 10.0 mi NNW 17.3 mph - N/A   Clear
6:15 AM 48.2 °F - 37.4 °F 66% 29.97 in 10.0 mi NW 10.4 mph 20.7 mph N/A   Clear
6:35 AM 46.4 °F 39.8 °F 35.6 °F 66% 29.98 in 10.0 mi NNW 16.1 mph 24.2 mph N/A   Clear
6:55 AM 46.4 °F 38.7 °F 32.0 °F 57% 30.00 in 10.0 mi NNW 20.7 mph 26.5 mph N/A   Clear
7:15 AM 46.4 °F 39.8 °F 28.4 °F 50% 30.02 in 10.0 mi NNW 16.1 mph 25.3 mph N/A   Clear
7:35 AM 44.6 °F 38.4 °F 30.2 °F 57% 30.03 in 10.0 mi NNW 12.7 mph 17.3 mph N/A   Clear
7:55 AM 46.4 °F 40.4 °F 30.2 °F 53% 30.05 in 10.0 mi NW 13.8 mph 23.0 mph N/A   Clear
8:15 AM 46.4 °F 40.1 °F 28.4 °F 50% 30.06 in 10.0 mi NW 15.0 mph 23.0 mph N/A   Clear
8:35 AM 46.4 °F 40.4 °F 26.6 °F 46% 30.07 in 10.0 mi NW 13.8 mph 24.2 mph N/A   Clear
8:55 AM 46.4 °F 38.5 °F 24.8 °F 43% 30.07 in 10.0 mi NW 21.9 mph 26.5 mph N/A   Clear
9:15 AM 48.2 °F - 26.6 °F 43% 30.08 in 10.0 mi NW 16.1 mph - N/A   Clear
9:55 AM 48.2 °F - 28.4 °F 46% 30.10 in 10.0 mi NW 17.3 mph 24.2 mph N/A   Clear
10:15 AM 50.0 °F - 28.4 °F 43% 30.11 in 10.0 mi NNW 16.1 mph 21.9 mph N/A   Clear
10:35 AM 51.8 °F - 28.4 °F 41% 30.12 in 10.0 mi NW 15.0 mph 23.0 mph N/A   Clear
10:55 AM 51.8 °F - 28.4 °F 41% 30.12 in 10.0 mi NNW 16.1 mph 25.3 mph N/A   Clear
11:15 AM 53.6 °F - 28.4 °F 38% 30.13 in 10.0 mi WNW 8.1 mph 24.2 mph N/A   Clear
11:35 AM 53.6 °F - 28.4 °F 38% 30.13 in 10.0 mi NW 16.1 mph 25.3 mph N/A   Clear
11:55 AM 55.4 °F - 30.2 °F 38% 30.14 in 10.0 mi NW 12.7 mph 26.5 mph N/A   Clear
12:15 PM 55.4 °F - 30.2 °F 38% 30.14 in 10.0 mi NNW 16.1 mph 26.5 mph N/A   Clear
12:35 PM 57.2 °F - 32.0 °F 38% 30.14 in 10.0 mi WNW 16.1 mph 23.0 mph N/A   Clear
12:55 PM 57.2 °F - 32.0 °F 38% 30.15 in 10.0 mi NW 16.1 mph 29.9 mph N/A   Clear
1:15 PM 57.2 °F - 33.8 °F 41% 30.15 in 10.0 mi NW 17.3 mph 24.2 mph N/A   Clear
1:35 PM 59.0 °F - 33.8 °F 39% 30.14 in 10.0 mi WNW 15.0 mph 18.4 mph N/A   Clear
1:55 PM 59.0 °F - 32.0 °F 36% 30.14 in 10.0 mi NW 16.1 mph 21.9 mph N/A   Clear
2:15 PM 60.8 °F - 32.0 °F 34% 30.14 in 10.0 mi NNW 13.8 mph 23.0 mph N/A   Scattered Clouds
2:35 PM 60.8 °F - 33.8 °F 36% 30.14 in 10.0 mi NNW 11.5 mph 19.6 mph N/A   Clear
2:55 PM 60.8 °F - 32.0 °F 34% 30.14 in 10.0 mi NW 9.2 mph 19.6 mph N/A   Clear
3:15 PM 60.8 °F - 33.8 °F 36% 30.15 in 10.0 mi NW 13.8 mph 24.2 mph N/A   Scattered Clouds
3:35 PM 60.8 °F - 32.0 °F 34% 30.15 in 10.0 mi NNW 15.0 mph 20.7 mph N/A   Scattered Clouds
3:55 PM 60.8 °F - 32.0 °F 34% 30.15 in 10.0 mi NNW 13.8 mph - N/A   Clear
4:15 PM 60.8 °F - 32.0 °F 34% 30.16 in 10.0 mi NW 8.1 mph 18.4 mph N/A   Clear
4:35 PM 59.0 °F - 33.8 °F 39% 30.16 in 10.0 mi NW 13.8 mph - N/A   Scattered Clouds
4:55 PM 60.8 °F - 33.8 °F 36% 30.17 in 10.0 mi NW 13.8 mph - N/A   Scattered Clouds
5:15 PM 59.0 °F - 33.8 °F 39% 30.17 in 10.0 mi NNW 9.2 mph 18.4 mph N/A   Scattered Clouds
5:35 PM 60.8 °F - 33.8 °F 36% 30.18 in 10.0 mi NNW 11.5 mph 19.6 mph N/A   Scattered Clouds
5:55 PM 57.2 °F - 35.6 °F 44% 30.18 in 10.0 mi NNW 10.4 mph - N/A   Scattered Clouds
6:15 PM 57.2 °F - 33.8 °F 41% 30.19 in 10.0 mi NNW 10.4 mph - N/A   Scattered Clouds
6:35 PM 55.4 °F - 35.6 °F 47% 30.20 in 10.0 mi NNW 8.1 mph - N/A   Scattered Clouds
6:55 PM 55.4 °F - 33.8 °F 44% 30.20 in 10.0 mi NNW 8.1 mph - N/A   Mostly Cloudy
7:15 PM 55.4 °F - 35.6 °F 47% 30.21 in 10.0 mi NNW 6.9 mph - N/A   Overcast
7:35 PM 55.4 °F - 33.8 °F 44% 30.21 in 10.0 mi NNW 6.9 mph - N/A   Mostly Cloudy
7:55 PM 53.6 °F - 33.8 °F 47% 30.21 in 10.0 mi NW 3.5 mph - N/A   Scattered Clouds
8:15 PM 51.8 °F - 35.6 °F 54% 30.21 in 10.0 mi Calm Calm - N/A   Clear
8:35 PM 48.2 °F - 35.6 °F 62% 30.21 in 10.0 mi Calm Calm - N/A   Clear
8:55 PM 48.2 °F - 37.4 °F 66% 30.22 in 10.0 mi West 3.5 mph - N/A   Clear
9:15 PM 46.4 °F 45.2 °F 37.4 °F 71% 30.22 in 10.0 mi West 3.5 mph - N/A   Clear
9:35 PM 44.6 °F - 35.6 °F 71% 30.22 in 10.0 mi Calm Calm - N/A   Clear
9:55 PM 46.4 °F - 37.4 °F 71% 30.22 in 10.0 mi Calm Calm - N/A   Clear
10:15 PM 44.6 °F - 35.6 °F 71% 30.23 in 10.0 mi Calm Calm - N/A   Clear
10:35 PM 44.6 °F - 37.4 °F 76% 30.23 in 10.0 mi Calm Calm - N/A   Clear
10:55 PM 42.8 °F - 35.6 °F 76% 30.23 in 10.0 mi Calm Calm - N/A   Clear
11:15 PM 42.8 °F - 35.6 °F 76% 30.23 in 10.0 mi Calm Calm - N/A   Clear
11:35 PM 42.8 °F - 35.6 °F 76% 30.24 in 10.0 mi Calm Calm - N/A   Clear
11:55 PM 41.0 °F - 35.6 °F 81% 30.24 in 10.0 mi Calm Calm - N/A   Clear